Regional Weather Roundup
Issued by NWS

Home | Current Version | Previous Version | Graphics & Text | Print | Product List | Glossary On
Versions: 1 2 3 4 5 6 7 8 9 10 11 12 13 14 15 16 17 18 19 20 21 22 23 24 25 26 27 28 29 30 31 32 33 34 35 36 37 38 39 40 41 42 43 44 45 46 47 48 49 50
000
ASUS45 KSLC 221710
RWRUT

UTAH REGIONAL WEATHER ROUNDUP
NATIONAL WEATHER SERVICE SALT LAKE CITY UT
1000 AM MST SAT NOV 22 2014

UTZ001>011-023>025-221800-

NORTHERN UTAH

CITY           SKY/WX    TMP DP  RH WIND       PRES   REMARKS
BRIGHAM CITY   CLOUDY    42  34  74 S10       29.90R
HILL AFB       RAIN      42  33  71 SW6       29.89R
LOGAN          RAIN      40  35  83 S14       29.86S WCI  32
OGDEN          RAIN      42  37  82 S14G21    29.89R
PROVO AIRPORT  CLOUDY    45  25  45 CALM      29.93R
SALT LAKE CITY LGT RAIN  49  27  42 S23G32    29.88R
VERNAL         PTSUNNY   35  17  47 CALM      29.94F
WENDOVER       CLOUDY    46  32  57 E6        29.84S
HEBER CITY     CLOUDY    45  23  42 SW18G26   29.90R
WEST JORDAN    CLOUDY    45  34  65 SE21G26   29.89R

$$

UTZ012>022-026-027-221800-

SOUTHERN/CENTRAL UTAH

CITY           SKY/WX    TMP DP  RH WIND       PRES   REMARKS
BLANDING       SUNNY     39  22  50 CALM      30.18R
BRYCE CANYON   SUNNY     42  21  43 S6        30.09F
CEDAR CITY     SUNNY     47  24  40 SW12      30.03F
DELTA          CLOUDY    47  26  44 S16G23    29.93F
MILFORD        PTSUNNY   45  25  45 S20       29.98F
MOAB/CYNLANDS  SUNNY     40  19  43 SE6       30.00F
PRICE          PTSUNNY   37  16  42 E7        30.00S WCI  32
ST GEORGE      CLOUDY    45  21  39 W3        30.10F
KANAB          SUNNY     41  19  42 CALM      30.14F

$$

REGIONAL REPORTS     COLORADO/ARIZONA

CITY           SKY/WX    TMP DP  RH WIND       PRES   REMARKS
CRAIG, CO      MOSUNNY   38  23  55 E3        29.92F
GRAND JUNCTION MOSUNNY   39  20  46 E14G25    30.01F WCI  31
RIFLE          MOSUNNY   31  20  63 CALM      30.02F
MONTROSE       SUNNY     40  22  48 S3        30.04F
CORTEZ         SUNNY     39  22  50 CALM      30.11F
PAGE, AZ       NOT AVBL
GRAND CANYON   SUNNY     47  19  33 SW8       30.17S
KINGMAN        SUNNY     58  21  24 CALM      30.09F
FLAGSTAFF      SUNNY     47  17  30 SW9       30.17R

$$

REGIONAL REPORTS    NEVADA/IDAHO/WYOMING

CITY           SKY/WX    TMP DP  RH WIND       PRES   REMARKS
LAS VEGAS, NV  PTSUNNY   56  29  35 VRB3      30.02S
ELY            CLOUDY    43  24  47 S10       29.99F
ELKO           LGT RAIN  43  40  89 S5        29.85F
POCATELLO, ID  LGT RAIN  41  37  86 S24G33    29.70S
BURLEY         LGT RAIN  44  37  76 SW18G35   29.69S
EVANSTON, WY   CLOUDY    38  24  57 SW18      29.84R WCI  28
ROCK SPRINGS   MOSUNNY   39  21  48 SE9       29.80F WCI  33
KEMMERER       LGT SNOW  32  32 100 W21G26    29.80S VSB 3/4 WCI  20

$$



USA.gov is the U.S. government's official web portal to all federal, state and local government web resources and services.